Theta_e
340 340 341 339 338 339 336 333 331 333 335 336 337 339 340 341 341 340 340 340 340 340 338 336 335 334 333 332 333 333 332 332 332 333 333 332 331 331 331 331 331 332 332 333 333 333 333 333 333 333 330 330 330 329 329 328 328 328 328 329 328 327 325 325 326 328 328 329 329 330 330 329 328 326 325 326 325 326 326 326 325 326 328 328 328
340 340 341 339 338 338 335 332 332 333 335 337 337 338 340 340 341 340 340 340 340 340 338 335 335 333 332 331 332 333 333 332 332 332 331 332 332 332 332 331 332 331 332 332 332 332 332 332 333 332 330 329 329 329 328 328 328 328 328 327 326 325 325 326 327 327 327 327 328 328 329 329 328 327 326 325 325 325 327 328 327 328 329 329 328
340 340 341 340 339 338 336 334 333 333 334 336 336 337 339 340 340 340 340 341 340 340 339 337 335 334 332 330 330 333 332 332 331 330 330 330 331 331 331 331 331 331 331 331 332 332 332 332 332 331 330 328 327 328 328 327 327 327 328 327 326 326 326 327 327 327 327 327 328 329 329 330 329 328 327 326 325 325 327 328 328 329 330 329 329
340 340 341 340 339 338 337 336 333 332 331 333 335 336 337 339 340 340 340 341 340 340 340 339 336 334 332 330 331 332 331 330 330 330 331 330 330 330 330 331 331 331 331 331 331 331 331 331 330 330 330 329 327 327 327 327 327 327 327 327 326 326 327 327 327 327 327 328 330 331 331 331 330 329 328 327 326 325 326 327 328 328 328 329 330
340 340 341 340 339 338 337 337 334 331 330 329 332 333 334 339 339 339 340 340 340 339 339 338 336 333 332 330 330 331 330 330 330 331 331 331 330 330 330 330 330 331 331 331 331 331 331 331 330 330 330 329 327 326 326 327 327 326 327 326 325 326 326 327 327 327 328 329 330 331 332 332 331 330 329 328 326 325 326 328 328 327 328 329 330
340 340 341 340 340 339 337 337 334 331 331 329 329 331 332 336 338 338 339 339 338 338 338 337 335 334 332 329 327 329 330 330 330 330 331 330 329 330 330 330 330 330 330 330 330 331 331 331 330 330 329 328 328 326 325 326 325 325 324 325 325 325 326 326 326 327 328 329 331 332 332 332 332 331 329 328 326 326 327 329 328 327 329 330 330
340 340 341 340 341 339 337 337 333 332 331 329 329 331 331 334 337 337 337 336 336 336 336 336 335 334 332 329 328 329 330 330 330 331 332 330 330 330 330 330 330 330 330 330 330 330 330 331 330 329 329 328 328 326 325 324 324 323 322 322 323 323 324 325 325 326 327 328 330 331 332 332 332 331 329 328 328 326 325 329 329 327 329 329 330
340 340 341 340 341 338 337 335 333 334 333 328 328 330 330 332 335 335 334 334 333 334 335 335 334 334 332 331 331 331 331 331 330 331 331 330 330 330 330 330 331 331 330 330 330 330 330 330 329 328 327 328 328 326 325 324 324 322 321 321 321 321 321 323 325 325 326 327 329 330 331 332 332 331 330 328 326 325 325 329 329 327 328 329 330
340 340 340 340 340 338 336 334 333 335 333 328 328 328 329 331 334 334 333 333 332 333 333 333 333 333 332 332 333 333 332 332 330 330 329 329 330 330 330 330 330 330 329 329 330 330 329 329 329 328 327 327 327 326 325 325 325 322 320 320 319 319 319 320 322 323 325 326 328 330 330 331 332 331 330 328 325 324 325 327 328 328 328 329 329
340 339 340 340 340 337 335 333 332 334 332 329 331 330 330 332 333 333 333 332 333 333 332 331 330 331 331 332 334 334 334 332 331 330 329 329 329 329 329 329 329 329 329 330 329 329 329 329 328 327 326 326 326 325 325 325 324 322 320 320 320 319 319 319 320 323 325 325 327 329 329 330 331 331 330 328 326 324 323 325 327 328 329 329 328
340 339 339 340 340 337 335 333 332 333 331 329 331 331 330 332 333 334 333 332 333 332 330 330 330 331 332 333 334 335 335 333 331 329 328 329 329 328 329 329 329 329 329 329 329 329 328 328 328 327 326 325 325 325 325 324 322 321 320 320 320 320 319 318 321 323 324 325 326 328 329 330 331 331 330 329 327 325 324 327 328 328 329 329 328
340 339 338 339 339 337 334 333 333 334 331 329 330 330 329 331 333 333 333 333 333 332 331 332 332 332 333 334 335 334 334 333 332 330 328 329 329 329 328 328 329 329 329 329 328 328 328 328 327 327 326 324 324 324 323 322 321 321 320 320 320 320 319 319 322 323 323 325 326 327 328 331 331 330 330 329 328 328 328 328 328 328 328 328 326
340 339 338 339 339 336 334 333 334 335 332 330 330 329 329 331 333 333 333 333 333 333 332 333 332 332 333 334 334 334 333 333 333 331 329 328 328 328 328 328 328 329 328 328 328 327 328 327 327 327 326 323 323 322 322 322 321 321 320 320 320 320 319 319 322 322 323 325 326 327 328 331 330 329 329 328 329 328 328 328 328 328 327 326 324
339 338 338 339 339 336 334 334 334 334 333 332 330 329 330 330 331 332 332 332 332 332 332 332 331 331 331 331 333 333 333 333 333 332 330 329 328 327 328 329 327 327 327 327 327 327 327 327 326 326 324 322 323 322 322 321 321 321 320 320 320 320 320 320 321 323 323 324 325 325 328 330 329 329 328 328 329 328 327 328 327 327 326 324 321
339 338 338 339 339 337 334 333 333 334 334 333 330 329 332 331 330 331 332 331 332 332 332 331 330 331 330 327 330 333 333 333 333 332 332 330 329 327 327 328 326 324 326 326 326 326 326 326 325 325 322 322 323 322 321 321 321 321 320 320 320 319 320 321 322 323 324 324 325 325 329 329 328 329 328 328 329 327 327 327 327 326 324 322 318
338 337 338 338 338 337 335 334 332 333 334 334 331 330 331 331 330 330 330 331 332 332 331 331 330 330 328 325 327 331 332 333 333 332 331 330 329 328 326 326 325 324 325 326 325 325 326 324 324 323 322 322 322 322 321 321 321 320 320 320 320 319 319 321 323 323 324 325 326 327 330 329 328 329 328 328 327 326 327 327 326 324 322 319 316
338 337 338 338 338 337 336 335 332 332 334 334 332 331 329 330 330 329 330 331 331 331 332 332 330 329 327 326 327 328 330 331 332 331 330 330 329 328 327 325 325 324 325 325 324 324 324 322 321 322 322 322 321 321 321 320 320 320 320 320 320 319 319 321 323 323 324 324 326 328 329 328 327 328 327 327 326 325 326 327 326 324 321 315 310
337 337 338 338 337 337 337 336 334 333 334 334 333 331 329 328 328 329 329 330 330 331 332 331 330 329 327 327 327 327 329 330 330 330 329 330 328 327 327 326 325 324 325 324 322 321 320 319 319 320 321 321 321 321 320 320 320 320 320 320 320 319 319 321 322 323 324 325 327 329 328 327 327 327 327 327 326 326 326 327 325 324 322 314 308
337 337 337 337 337 337 336 336 335 335 335 334 334 332 329 327 328 330 329 329 330 330 331 330 330 329 327 327 327 328 329 330 329 329 330 329 328 327 326 325 325 324 324 322 319 319 319 319 319 320 321 321 321 321 320 320 320 320 320 320 319 319 320 321 322 322 324 326 327 328 327 327 328 327 328 327 327 326 326 326 324 323 321 315 308
337 337 337 337 337 337 336 336 336 335 334 334 334 333 330 326 327 330 330 330 330 330 329 328 329 329 327 326 326 327 328 328 329 330 330 329 328 327 326 324 323 322 322 320 318 319 319 319 320 320 321 321 321 321 321 321 321 321 320 320 320 320 321 321 321 321 322 325 326 327 327 327 328 327 328 327 325 325 325 325 323 322 320 315 307
337 336 337 337 336 336 336 335 335 335 334 334 334 333 331 327 327 329 330 330 330 330 329 328 329 328 327 325 325 326 326 327 328 329 329 329 328 327 327 324 322 320 319 318 318 319 320 320 320 321 321 321 321 321 322 321 321 321 320 320 320 321 321 320 321 321 320 322 326 326 326 327 326 326 326 327 325 324 325 324 322 321 319 316 309
336 336 336 336 336 336 335 335 335 335 334 334 334 333 331 329 329 329 329 330 329 330 330 329 328 327 326 324 324 325 327 328 327 328 328 328 327 327 327 326 323 319 317 318 318 319 320 321 321 321 322 321 321 322 322 321 321 321 320 320 321 321 320 320 320 320 319 319 323 325 324 325 324 324 324 325 325 324 324 322 321 320 319 317 312
335 336 335 335 335 335 336 334 334 334 334 334 334 333 332 330 330 330 329 330 329 330 330 329 328 326 325 323 323 322 323 326 327 327 327 328 327 327 327 326 324 319 316 318 318 319 320 321 321 322 322 321 322 322 322 321 321 321 320 320 321 321 320 320 320 320 319 317 320 324 323 323 323 323 324 324 324 323 322 321 319 318 318 317 314
335 335 335 335 335 335 335 334 333 334 334 334 334 333 333 332 331 331 331 330 329 330 330 330 328 327 326 324 324 321 319 322 324 324 326 327 327 327 326 325 324 319 316 317 318 319 320 321 321 322 322 322 322 322 322 322 321 321 321 321 321 321 320 320 319 319 319 316 318 323 321 320 322 323 324 324 323 322 321 320 318 317 318 317 316
335 335 335 335 334 334 335 334 333 333 334 333 333 333 333 333 332 331 331 330 330 330 330 330 329 327 327 326 325 323 320 321 321 323 325 326 326 326 325 324 324 320 316 317 317 318 319 320 321 322 322 323 323 322 322 322 321 321 322 321 321 321 320 319 319 318 320 317 316 321 322 319 322 323 322 322 321 321 319 319 318 317 318 317 317
334 334 334 334 334 334 334 334 334 333 333 333 333 333 332 332 333 332 331 330 329 329 330 330 329 328 327 326 325 323 321 321 321 322 323 324 324 324 323 322 322 320 316 316 318 317 317 318 321 322 323 323 323 323 322 322 322 322 322 322 321 321 320 319 319 318 320 318 312 316 322 319 320 322 320 320 319 319 318 317 318 317 317 317 317
333 334 333 334 333 333 334 334 333 333 332 332 332 332 332 332 332 332 331 330 329 329 329 329 329 328 327 326 324 322 320 319 320 322 322 323 323 323 323 321 320 319 316 316 318 317 317 317 319 321 322 323 323 323 323 323 322 322 323 323 322 321 320 319 319 319 319 319 312 308 318 320 317 320 320 320 321 319 319 317 317 317 316 317 316
333 333 332 333 333 333 334 334 333 333 332 332 332 332 331 331 331 331 331 330 329 328 328 328 328 327 326 325 323 322 321 319 319 320 321 322 323 323 322 320 318 317 315 316 317 317 316 316 317 320 322 324 323 323 323 323 322 322 323 322 321 321 321 319 318 320 318 319 316 305 311 318 316 320 321 320 322 320 320 319 317 317 317 316 316
332 332 332 331 332 333 333 334 334 333 332 332 331 331 331 331 331 331 331 330 330 329 328 328 327 326 325 325 323 323 323 320 318 317 317 319 320 321 320 318 316 316 315 316 317 317 316 316 318 321 323 324 323 323 323 323 322 322 323 322 321 321 321 320 318 319 318 318 319 308 306 316 318 320 321 320 321 321 320 320 318 316 316 316 316
331 331 331 331 331 332 333 333 333 333 332 332 332 332 331 331 331 332 331 330 330 329 329 328 327 326 325 324 323 323 324 322 320 316 314 316 318 318 317 316 315 315 315 316 317 316 317 317 319 321 323 323 323 323 323 323 323 322 323 322 321 321 320 319 317 318 319 317 319 313 306 314 320 320 320 320 320 321 319 319 318 316 315 315 315
331 331 331 331 331 331 332 333 333 333 332 332 331 331 331 331 330 331 331 330 329 329 328 328 326 326 325 324 323 323 323 323 323 320 315 314 316 315 314 315 314 314 315 316 317 316 316 317 318 320 322 323 323 323 323 323 323 323 322 322 321 321 320 319 318 318 318 317 318 317 310 312 320 320 319 320 320 319 318 317 317 316 315 315 315
331 331 331 331 331 331 331 332 332 332 332 332 331 331 331 330 330 330 331 330 330 329 328 328 326 325 325 325 324 323 322 322 322 321 317 314 314 314 313 314 315 314 315 316 317 316 315 315 315 316 320 323 323 323 324 323 323 322 322 322 321 321 320 319 319 319 319 318 317 318 314 310 316 321 319 319 320 319 317 317 317 316 315 315 315
331 331 331 330 331 331 331 331 332 332 331 332 331 331 331 331 330 329 330 330 330 329 329 328 327 326 325 325 325 324 323 322 321 322 319 315 314 314 314 315 315 315 316 316 317 316 315 315 314 315 318 321 323 324 324 323 323 322 321 321 322 321 320 319 319 319 318 318 317 317 317 312 312 318 320 319 320 319 317 317 316 315 316 315 315
331 331 331 330 330 330 330 331 331 332 331 331 331 331 330 330 330 329 330 330 330 330 329 329 328 327 326 326 326 325 324 323 322 321 321 319 317 317 316 315 316 316 316 316 316 316 316 316 316 317 319 321 323 324 323 323 323 322 322 321 322 321 320 319 319 318 318 318 318 317 318 316 312 315 318 319 319 319 318 317 316 315 315 315 315
330 330 329 329 330 329 330 330 330 331 331 331 331 331 330 330 330 329 329 330 330 330 329 329 329 328 327 327 326 326 325 324 323 322 322 322 321 320 319 317 317 316 316 316 316 316 316 318 319 320 321 321 322 324 323 323 323 323 323 322 322 321 321 320 319 318 318 318 318 318 317 317 314 312 314 318 318 318 318 316 316 314 312 313 314
329 329 328 328 329 329 329 329 330 331 331 331 331 330 330 330 330 329 329 329 329 330 329 329 329 329 328 328 327 326 326 325 324 323 322 322 322 322 321 319 317 317 317 317 316 316 317 319 321 321 321 322 323 323 323 323 323 323 323 322 322 322 321 320 319 318 318 318 318 319 317 316 316 312 311 316 317 317 317 316 316 314 311 309 311
327 328 328 328 328 329 329 329 329 330 331 331 331 331 330 330 330 329 328 328 328 328 329 329 329 329 329 329 327 327 327 326 325 324 322 322 322 322 323 321 318 317 319 319 318 319 320 320 321 321 321 322 323 323 323 323 323 323 323 323 322 322 322 321 320 318 317 318 318 319 317 316 317 314 310 312 316 316 316 316 316 314 311 306 306
327 327 328 328 328 328 329 328 329 330 330 331 331 330 330 330 329 329 328 327 327 327 327 328 329 329 330 329 328 327 327 327 326 324 323 322 322 322 322 322 319 318 320 321 321 322 322 322 322 322 321 321 322 323 323 323 324 323 323 323 322 322 322 321 320 319 317 317 317 318 318 316 317 316 311 309 311 315 316 315 315 314 312 307 303
326 326 327 327 328 328 328 328 328 329 330 330 330 330 330 330 329 329 328 327 327 327 327 327 328 329 329 328 328 327 327 327 326 325 324 323 322 321 321 321 319 318 320 321 322 322 322 322 322 322 321 320 321 322 323 323 323 324 323 323 323 321 321 320 320 319 318 318 317 318 318 317 316 315 313 310 307 311 315 315 315 314 312 309 306
323 324 326 327 328 328 328 328 327 328 330 330 330 330 330 330 330 329 328 328 327 327 327 326 327 328 328 328 328 327 327 327 326 325 324 324 323 321 321 321 319 318 321 322 322 322 322 321 321 322 322 320 319 321 322 323 323 323 323 322 322 322 321 320 320 319 319 318 318 318 318 317 316 314 313 310 307 306 310 313 314 314 311 310 308
321 322 325 326 326 327 328 328 327 328 330 330 330 330 330 330 329 329 329 328 327 327 326 326 326 327 328 328 327 327 327 327 326 325 325 324 323 322 320 319 319 319 321 322 322 322 321 321 321 321 322 322 321 320 321 323 323 323 323 323 322 321 320 320 320 319 319 319 318 319 318 317 317 315 312 310 308 306 305 306 309 310 311 309 308
320 320 323 324 324 326 327 328 327 328 328 329 330 330 330 330 329 329 329 328 327 327 327 326 327 328 328 328 327 327 327 327 327 326 326 325 324 323 321 319 319 320 321 322 322 322 321 321 321 321 321 322 322 322 321 322 323 323 323 323 322 321 319 319 320 319 319 319 319 318 318 318 317 316 314 311 311 310 305 302 302 304 306 307 307
320 321 322 323 324 326 327 328 328 328 327 328 329 330 330 329 329 329 329 328 328 327 327 327 327 328 328 328 328 327 327 327 327 327 327 326 325 325 323 321 320 320 321 321 321 321 321 320 320 321 322 321 321 322 321 321 322 323 323 322 322 321 320 319 319 318 318 319 319 318 317 318 317 316 315 313 311 311 307 303 301 300 301 303 303
320 323 323 323 324 325 326 327 327 327 327 327 328 329 329 329 329 329 328 328 328 327 327 327 327 327 327 327 327 327 326 326 326 327 329 328 326 325 325 323 322 322 322 321 322 321 320 321 320 321 322 321 321 321 320 320 322 322 322 322 321 320 319 320 320 318 315 315 318 318 317 317 316 315 315 313 312 311 309 306 304 301 299 299 299
319 320 321 321 322 323 323 324 326 327 327 327 327 328 329 329 329 328 328 328 327 327 327 327 327 327 327 326 326 327 326 326 326 326 328 329 328 326 325 324 324 323 323 322 322 322 321 320 320 320 321 322 322 322 320 319 321 322 322 322 321 320 320 320 320 319 315 313 315 317 317 317 316 315 314 313 311 310 309 308 306 303 300 298 298
318 318 319 319 321 322 322 323 325 327 327 327 327 327 328 329 329 328 328 328 327 327 327 327 327 327 327 327 327 327 326 326 327 326 326 328 328 327 326 325 324 324 324 323 323 322 321 320 320 320 320 321 322 323 322 319 319 322 323 322 322 322 322 321 319 319 317 313 313 315 316 317 315 313 313 312 311 310 308 308 307 304 301 299 299
317 318 318 319 320 321 322 324 325 326 327 327 327 327 327 328 328 328 328 328 327 327 327 327 327 327 327 327 327 327 326 326 326 326 325 327 328 327 326 325 325 324 324 324 323 322 321 320 320 320 319 321 322 323 323 322 320 320 322 323 323 323 323 321 320 321 321 316 313 313 313 315 314 312 312 311 310 309 308 308 307 305 303 301 299
317 317 318 318 319 320 322 324 325 326 326 327 327 327 327 327 328 328 328 328 327 327 327 327 327 327 327 327 327 327 327 326 326 326 326 326 327 327 326 326 325 325 324 324 324 323 322 320 319 319 319 321 322 322 323 323 321 320 321 322 323 323 322 322 322 322 322 321 317 312 309 310 310 310 311 310 308 308 307 307 307 305 303 302 300
317 317 317 317 318 320 322 324 325 326 326 326 327 327 326 327 327 328 328 328 327 327 328 327 327 327 327 327 327 327 327 326 326 327 326 326 327 327 326 326 325 325 324 324 324 323 323 322 321 319 319 320 321 322 323 323 323 322 322 321 321 322 322 321 320 320 320 321 321 316 311 307 305 309 312 310 308 308 307 306 305 304 303 302 301
317 316 316 316 317 320 322 324 325 326 326 326 326 326 326 326 327 328 328 328 328 328 328 328 327 327 327 327 327 327 327 326 326 327 327 326 327 327 326 326 325 324 324 324 324 324 323 323 322 320 318 319 320 321 322 322 324 323 322 322 322 322 322 320 318 318 318 318 319 320 315 309 307 311 314 313 312 311 308 306 305 304 302 302 301
316 315 315 315 316 319 322 323 324 325 327 326 326 326 326 326 326 327 328 328 328 328 328 328 328 328 327 327 327 327 326 326 326 326 327 326 326 326 325 325 325 324 324 323 323 324 323 323 323 322 321 320 320 321 321 321 323 324 323 322 322 322 322 321 319 318 318 318 318 317 317 314 313 315 315 314 314 313 310 307 306 305 303 302 301
Wind_Speed
13 12 12 12 13 12 10 10 9 9 8 8 8 10 10 11 12 12 13 14 14 12 11 10 10 10 10 11 12 12 12 12 11 11 12 12 11 11 11 11 12 12 13 13 14 14 14 15 14 16 18 18 18 18 18 18 18 18 17 17 16 17 17 17 18 19 19 19 20 20 19 18 18 18 17 16 15 16 16 14 14 14 12 11 11
15 14 12 13 14 12 11 10 10 9 8 9 8 9 11 11 12 13 14 14 13 11 11 10 10 10 9 10 11 12 12 11 11 11 11 11 11 12 12 12 12 12 13 13 13 14 14 15 14 15 18 18 18 19 18 18 18 18 17 16 15 17 18 18 19 19 19 20 21 21 20 18 17 17 17 16 14 14 15 13 13 14 12 12 11
16 14 12 14 14 13 11 10 10 9 8 9 9 9 11 12 12 13 14 13 12 11 10 9 9 8 8 9 10 11 11 11 11 11 10 10 11 12 12 13 13 13 13 13 14 14 14 15 14 15 16 17 18 19 18 18 17 17 16 15 15 16 17 17 17 17 18 19 19 19 18 17 16 16 16 15 14 13 13 13 13 14 12 13 13
16 13 12 15 14 13 12 10 10 9 8 8 9 10 11 12 12 12 12 11 11 10 10 9 8 8 9 9 10 11 11 11 10 10 10 11 12 12 13 13 13 13 13 14 14 14 14 15 15 15 16 16 17 18 18 18 17 16 16 15 15 15 15 15 15 15 15 16 17 16 14 15 15 14 14 14 14 13 14 14 12 12 11 12 14
15 12 12 14 14 14 12 10 9 9 8 8 8 9 10 11 12 12 11 10 10 9 9 9 8 7 9 9 10 11 10 11 10 10 11 11 12 13 13 13 13 14 14 14 14 15 15 15 15 15 15 15 16 17 17 17 17 17 16 15 14 14 13 13 13 13 13 13 14 13 12 13 13 13 13 13 13 13 14 13 11 11 11 12 13
15 12 12 13 13 14 14 11 8 8 8 8 8 9 10 11 11 11 11 11 10 8 7 7 7 7 9 9 10 11 11 11 10 10 10 11 12 12 13 14 14 14 14 14 14 14 14 14 15 14 14 14 14 16 16 17 17 16 16 14 13 12 11 12 12 12 13 13 13 12 10 10 11 13 13 11 12 12 12 11 12 12 12 12 13
14 12 12 12 12 14 14 12 9 8 8 9 10 10 10 12 11 9 9 9 9 7 7 6 7 9 9 10 10 11 12 11 10 10 10 11 12 12 13 13 14 14 14 14 14 14 14 14 14 14 14 13 13 15 15 16 16 15 14 13 12 11 10 10 12 13 15 13 12 11 10 9 9 11 12 11 11 11 11 11 12 13 13 13 13
13 11 11 11 10 13 14 12 10 9 7 9 10 10 10 13 14 10 8 7 8 8 8 7 8 9 9 9 9 11 12 11 10 10 11 10 11 12 12 13 13 13 13 13 13 13 13 13 14 13 13 13 13 13 14 14 14 14 13 12 12 10 9 9 11 13 14 12 11 10 9 9 9 10 10 11 10 10 10 11 11 13 13 14 14
12 11 11 11 10 13 14 12 11 10 8 9 9 9 11 14 15 12 10 8 8 8 9 9 9 9 8 8 9 11 12 11 10 10 11 10 11 12 12 13 13 12 12 12 13 13 13 13 13 12 12 13 12 12 13 14 13 13 12 11 11 10 10 8 8 10 10 10 10 9 9 8 8 8 9 10 10 10 10 10 11 11 12 13 14
12 11 11 10 10 14 13 12 12 11 9 9 10 10 11 15 15 13 11 10 9 9 9 9 10 10 9 9 9 11 12 11 10 9 10 11 11 12 12 12 12 12 12 12 12 12 13 13 12 12 11 12 12 12 13 13 12 12 11 11 10 10 9 8 7 7 7 8 9 10 10 9 7 8 10 10 11 11 11 11 11 10 11 13 14
12 11 11 9 11 14 13 12 11 10 9 9 11 11 12 15 14 13 12 11 11 9 10 9 10 11 10 10 10 11 11 10 8 8 10 11 11 12 12 12 11 11 11 12 12 12 12 12 12 11 11 11 12 12 12 12 11 11 10 10 10 10 10 9 8 6 6 7 7 8 10 9 8 9 11 11 11 12 11 11 10 9 11 13 15
11 11 12 10 11 14 13 12 11 9 8 9 10 11 13 16 14 13 13 12 11 10 10 10 11 10 9 8 10 10 10 10 8 9 11 11 11 11 12 11 11 11 11 11 11 11 12 12 11 11 10 10 11 11 11 10 10 9 8 8 9 10 10 9 8 5 5 5 5 6 8 8 8 10 11 10 11 11 10 9 9 10 12 14 15
11 12 12 11 11 13 13 12 12 9 8 8 10 11 13 15 13 13 13 12 11 11 11 11 11 10 9 7 8 10 10 10 9 9 10 11 10 10 10 10 10 10 10 11 11 11 11 11 11 11 9 9 10 10 10 9 8 8 7 7 9 10 11 10 8 6 5 4 4 6 7 7 9 11 10 9 10 9 9 9 9 11 13 15 15
11 12 12 10 10 13 13 13 12 10 8 8 10 13 12 11 12 13 13 12 12 12 12 12 11 9 9 8 8 9 10 9 9 10 9 9 8 9 9 9 9 9 9 10 10 10 11 10 10 9 8 9 9 8 8 8 8 7 7 7 8 9 10 9 7 6 5 4 3 4 7 7 10 10 8 8 9 8 9 10 11 13 14 14 14
11 12 12 10 10 11 13 12 13 11 9 8 10 12 12 11 10 12 12 12 13 14 13 11 10 9 8 8 9 8 8 9 9 9 9 8 7 7 7 7 7 8 9 9 9 10 10 9 9 8 7 8 7 7 7 7 7 7 6 7 8 9 9 8 7 7 5 5 4 4 6 7 11 10 6 8 9 8 9 10 11 13 14 13 14
10 11 12 11 10 10 12 12 12 11 10 9 9 11 13 14 12 12 12 13 14 13 12 11 10 9 8 8 10 8 7 9 9 8 8 6 6 6 6 6 6 8 8 8 8 9 9 8 8 7 7 7 6 7 7 7 7 7 6 7 8 9 9 8 7 7 6 5 5 5 5 8 12 8 6 9 9 8 8 10 11 12 14 13 13
10 11 11 10 10 10 10 11 13 12 10 10 9 9 11 14 15 13 13 13 14 12 11 10 10 10 9 9 11 10 8 8 8 7 6 6 6 6 6 6 6 8 8 7 8 8 8 7 6 6 6 6 6 6 6 7 7 7 6 7 9 9 9 9 7 6 6 5 5 6 5 9 11 6 5 9 9 7 7 11 12 11 12 13 13
10 11 11 10 11 10 10 10 12 12 10 10 9 9 9 12 15 13 13 13 13 11 11 11 11 11 11 11 11 11 10 9 9 8 7 7 7 6 6 6 6 8 8 8 8 8 7 6 6 6 5 5 5 5 6 6 6 6 6 6 8 9 9 9 8 6 6 6 6 6 7 11 9 4 7 11 10 7 8 13 14 11 9 11 12
11 11 11 10 11 11 11 11 12 11 11 10 9 9 9 11 15 13 14 15 13 11 11 12 12 12 11 12 11 11 10 9 9 9 9 8 7 6 6 6 7 8 8 8 9 7 6 6 6 7 6 5 4 5 5 5 5 5 5 6 7 9 9 8 7 6 6 5 5 6 8 12 8 5 9 11 10 8 10 12 11 10 9 10 11
11 12 12 11 11 12 12 11 11 12 11 11 10 10 10 12 15 14 14 15 13 12 12 13 13 12 12 12 12 12 10 9 9 9 9 9 7 6 6 6 6 7 9 9 9 8 6 6 7 7 5 4 3 3 3 3 3 4 4 4 6 8 8 7 6 6 5 4 5 6 8 10 7 6 9 11 9 6 10 11 9 9 8 9 10
13 14 13 12 12 12 12 12 12 12 12 12 11 10 10 11 15 16 15 15 14 14 13 13 14 13 12 12 13 12 10 10 9 9 10 9 8 7 7 5 4 6 10 11 10 9 7 7 7 6 4 3 3 2 2 2 3 4 4 4 6 7 7 6 6 6 5 3 4 6 8 8 6 6 8 10 9 6 11 11 8 9 9 10 11
14 13 13 14 13 13 14 13 13 14 13 12 11 10 11 11 13 15 15 16 15 15 15 15 14 14 13 13 13 11 9 9 10 11 11 11 10 9 8 6 4 6 10 11 11 10 8 7 6 5 3 2 2 3 3 3 4 4 4 5 5 5 6 6 5 6 6 4 3 4 7 8 6 5 6 8 9 8 10 9 7 9 11 12 11
15 14 14 15 14 14 14 15 15 15 15 14 12 12 12 12 12 13 14 15 16 16 17 17 16 15 13 13 14 13 12 10 11 12 12 11 11 10 9 7 5 6 10 11 10 10 8 7 6 5 3 2 2 3 3 3 3 4 4 4 4 4 5 6 5 5 6 4 3 2 5 8 6 4 5 7 8 8 8 6 6 10 11 12 11
16 16 15 15 14 15 14 16 17 16 16 15 14 13 12 12 12 12 12 13 16 17 17 18 17 16 15 14 14 16 16 12 13 14 13 12 12 11 10 8 7 7 10 11 11 10 8 8 6 5 3 2 2 2 2 2 2 3 3 3 4 3 5 6 5 4 5 5 3 4 5 7 6 4 5 7 7 7 7 6 8 10 10 11 11
16 16 15 15 16 16 15 15 17 16 17 17 16 14 13 13 12 13 12 12 16 16 17 19 18 17 16 15 14 16 16 14 13 13 13 13 13 12 11 11 9 8 10 11 12 11 10 9 7 6 3 3 2 1 1 1 2 2 2 2 3 3 4 5 5 4 5 6 2 5 7 8 6 6 6 6 6 6 7 7 9 10 10 10 10
17 17 17 17 16 17 16 15 17 16 17 17 16 16 16 14 13 14 13 13 16 16 18 20 20 19 18 17 16 16 16 16 14 12 13 14 14 14 13 12 11 10 11 12 13 12 11 10 9 6 4 4 3 1 1 1 1 2 3 2 2 3 4 5 4 4 5 6 3 5 9 7 7 8 6 5 6 6 6 8 9 9 9 9 9
18 18 18 18 16 17 17 16 17 18 18 19 17 17 18 16 15 17 16 14 16 16 17 19 20 21 20 18 17 17 15 15 15 15 15 15 15 14 14 13 12 12 13 14 14 13 12 11 10 8 6 5 4 3 2 2 2 3 3 2 2 1 3 4 4 4 4 5 5 3 9 7 7 9 7 6 7 8 8 8 8 8 8 8 9
18 19 18 17 16 17 18 18 18 18 19 20 20 20 20 19 18 19 17 16 16 15 16 16 18 21 20 18 17 15 13 13 14 15 17 17 16 15 14 13 13 14 15 15 15 14 13 12 11 9 7 6 5 4 3 3 3 3 3 3 2 2 1 2 3 4 3 4 6 1 8 9 10 10 7 7 8 8 9 9 8 7 7 7 7
18 19 18 18 18 17 19 19 19 19 18 19 21 22 22 22 21 19 17 17 16 15 14 14 15 17 18 19 18 14 11 14 15 15 16 17 17 16 15 14 14 15 16 17 16 15 13 12 11 9 8 7 5 4 4 3 3 4 4 3 3 2 2 1 3 3 3 2 4 3 6 11 11 10 8 8 9 8 9 8 8 7 6 6 7
19 19 19 19 18 18 19 20 20 20 18 17 20 23 23 23 23 20 17 17 18 16 14 14 15 14 13 18 20 16 14 16 16 16 16 16 16 16 15 15 15 16 17 18 17 16 13 11 11 10 9 8 6 5 5 4 5 5 5 5 4 3 3 1 3 3 2 2 2 4 4 11 11 9 9 10 9 9 8 7 6 6 7 6 6
19 19 20 19 18 18 20 21 21 21 20 17 19 23 24 24 25 22 19 18 18 17 16 16 17 16 13 14 18 18 17 18 17 17 16 16 16 15 15 16 16 17 18 18 18 16 14 12 11 10 8 7 7 6 5 5 5 5 6 6 5 5 4 3 3 3 2 2 1 3 1 10 11 9 10 10 10 10 8 7 7 6 6 6 5
21 23 21 19 18 19 20 20 20 21 22 20 19 22 24 26 27 25 24 22 19 19 20 20 21 22 18 16 17 16 18 20 18 18 17 16 17 16 16 16 17 17 18 18 18 17 15 14 13 12 11 9 7 7 7 6 6 6 5 5 5 6 5 3 4 4 2 2 2 2 2 6 11 11 10 10 11 10 9 9 8 7 7 6 6
23 23 22 21 21 20 19 20 20 21 22 21 19 20 22 26 28 29 30 28 25 24 25 24 24 25 22 21 20 16 18 21 20 20 18 18 18 18 17 17 17 17 17 18 18 17 16 15 13 13 13 11 9 8 8 7 7 6 5 5 5 7 7 4 4 5 4 3 3 2 2 2 8 11 10 10 12 10 10 10 9 9 8 6 6
23 22 25 26 24 21 18 17 20 22 23 22 21 20 19 21 27 32 32 31 30 29 28 27 25 26 25 24 23 18 17 18 19 22 21 19 19 18 19 19 17 17 17 17 17 17 16 14 13 12 12 11 10 8 8 8 7 7 6 6 6 7 8 6 4 6 7 7 6 4 3 2 4 9 11 11 12 12 12 13 13 13 9 7 7
23 25 29 30 28 25 21 17 19 22 23 23 23 22 20 19 23 31 34 32 32 32 31 30 27 27 27 26 25 23 19 16 16 19 21 19 17 17 19 20 19 18 17 18 17 17 16 14 12 10 10 10 10 9 9 8 8 8 8 7 7 7 8 8 6 7 9 10 9 7 5 4 3 7 11 10 11 15 16 16 16 14 10 8 8
25 27 30 30 29 28 26 22 20 21 22 23 23 21 20 19 20 28 34 34 34 33 32 31 30 29 28 28 27 26 23 19 16 16 17 17 17 17 17 19 21 20 18 19 18 17 16 14 12 11 11 10 10 10 10 10 9 9 9 9 8 8 9 9 8 8 8 10 11 9 6 6 6 6 10 10 10 15 17 17 17 15 11 9 9
28 28 27 30 31 30 31 28 24 22 22 23 22 21 20 20 20 24 32 35 34 35 33 32 32 31 30 30 29 28 27 23 18 15 16 17 18 18 16 17 21 22 20 20 20 18 16 15 13 13 13 11 11 12 11 10 11 10 9 9 10 11 11 11 10 9 9 9 11 11 9 8 8 7 9 11 12 15 17 18 18 15 12 10 10
28 29 27 29 31 31 32 33 30 24 21 22 22 21 20 20 21 22 29 35 35 35 34 33 32 32 32 30 29 27 27 25 20 17 16 17 18 19 17 16 19 22 21 21 20 18 15 15 13 13 15 14 12 12 12 11 12 12 11 10 11 12 11 12 13 12 10 10 12 13 13 11 11 9 9 11 14 17 18 18 17 16 15 13 13
28 29 28 28 28 29 32 34 34 28 22 21 21 21 21 21 21 20 24 32 35 34 33 32 31 31 29 26 24 22 23 24 21 18 17 17 17 19 17 15 19 23 22 20 19 18 16 15 14 14 15 17 15 13 12 12 12 12 12 12 13 14 13 14 15 15 14 14 15 16 16 15 13 12 10 11 15 18 19 19 19 18 18 17 15
28 28 28 28 27 28 30 32 36 33 24 21 21 22 22 22 23 22 23 28 32 33 32 32 29 28 26 22 19 19 19 20 20 19 19 18 17 18 18 15 18 22 22 20 18 18 16 15 16 16 15 17 19 18 15 13 12 13 13 13 13 15 17 17 17 18 18 17 18 18 19 18 16 14 13 13 14 17 20 21 22 21 21 20 18
26 27 27 28 30 30 30 33 36 33 28 25 24 24 24 24 25 26 25 27 30 33 33 33 32 29 25 21 19 19 20 19 19 19 20 20 18 18 21 19 18 20 21 19 18 17 17 16 15 16 16 16 17 19 18 14 13 13 13 13 14 14 16 18 19 21 21 20 20 20 21 20 18 16 15 15 15 16 19 21 23 24 24 22 20
26 29 29 30 32 31 30 33 33 32 32 30 26 25 25 23 23 25 25 24 27 33 36 35 36 35 31 26 21 20 20 21 21 21 20 19 17 19 24 24 20 18 18 18 18 18 17 17 16 15 16 16 14 16 16 14 13 14 12 11 11 12 14 17 20 21 22 22 22 21 23 22 19 17 17 17 17 19 20 21 22 24 25 24 22
27 28 29 30 31 31 31 31 30 32 35 34 31 29 26 24 21 21 22 21 22 27 30 30 30 33 34 31 27 22 20 22 23 25 27 24 21 25 27 26 23 19 17 18 18 18 18 18 19 17 15 14 14 15 16 16 16 13 10 9 8 7 9 12 16 19 21 21 22 21 23 23 21 20 20 20 21 22 22 21 22 23 24 24 23
27 25 27 31 32 32 33 33 32 34 36 38 38 34 29 25 20 17 19 19 18 19 21 22 23 26 27 27 27 24 21 20 22 26 33 33 29 31 30 27 27 23 18 17 18 20 20 18 19 19 17 15 14 16 17 17 18 14 8 6 5 5 6 6 9 13 16 18 20 21 21 23 24 23 23 24 25 24 24 23 23 23 24 24 24
29 30 31 33 34 35 36 36 36 35 37 40 42 37 29 24 21 18 19 20 20 19 20 22 22 22 23 23 23 23 23 24 24 26 32 36 34 33 32 30 30 28 23 19 19 21 21 20 21 21 22 20 16 15 15 17 21 21 14 9 5 4 5 4 3 7 12 15 18 20 21 22 25 27 27 27 28 27 26 26 25 25 25 25 26
31 34 34 34 35 36 36 37 36 35 37 40 41 39 32 27 25 23 23 24 24 24 25 26 24 23 24 22 22 23 24 25 27 25 27 34 37 34 33 33 32 32 30 24 20 20 23 25 25 23 24 25 20 15 15 16 21 24 22 19 13 9 6 2 2 4 8 12 15 19 21 22 25 28 28 29 30 30 29 28 28 28 27 26 27
31 32 32 33 34 35 36 36 36 36 38 39 39 40 34 29 28 28 27 26 25 27 28 28 26 26 26 24 24 25 24 24 25 22 22 29 36 35 34 35 34 34 33 30 23 21 25 28 28 27 26 25 22 19 18 16 16 20 24 24 23 21 16 9 6 6 5 7 13 19 21 22 25 28 30 31 32 32 31 31 30 30 29 28 28
28 29 30 33 34 35 35 35 36 36 36 36 37 40 38 33 32 31 30 28 30 31 29 29 29 26 26 29 30 29 29 29 25 23 23 25 32 36 34 36 36 34 33 33 31 27 27 29 30 31 28 25 24 23 22 19 16 18 21 23 25 27 25 21 16 11 8 6 8 13 17 21 26 29 30 32 34 34 33 33 33 31 31 31 30
23 26 30 32 32 33 34 34 35 36 35 35 36 39 41 38 34 32 31 30 33 32 25 27 30 27 26 31 33 32 33 31 26 27 28 25 30 36 35 36 38 34 30 29 31 31 31 30 30 33 32 29 27 26 24 22 20 18 18 19 21 23 24 22 20 16 12 9 6 6 9 14 20 27 32 33 34 34 34 34 34 33 33 32 31
21 26 27 29 29 29 31 32 34 35 34 36 37 38 41 40 35 32 32 31 30 27 22 23 26 26 26 29 31 33 34 34 33 35 35 31 33 35 36 37 34 30 27 23 23 27 30 27 26 32 35 33 29 26 26 25 22 21 19 18 19 20 18 15 15 17 15 12 10 7 7 9 11 20 29 33 34 34 35 36 35 34 34 34 33
20 24 25 27 28 28 28 30 33 32 30 34 37 38 40 41 40 37 36 35 29 24 23 23 23 25 27 27 28 30 33 35 37 38 38 37 33 28 33 34 27 25 24 22 22 25 26 24 23 27 31 32 29 27 28 27 23 22 21 21 21 20 19 15 16 20 17 14 11 8 9 13 14 17 22 26 30 32 35 36 36 36 35 36 36
Wind_Direction
157 159 154 153 143 140 140 139 137 133 127 116 114 114 121 126 127 125 122 121 117 113 113 107 97 89 85 87 93 94 91 91 91 92 92 96 101 101 101 102 99 93 85 81 80 81 83 85 84 81 79 79 81 83 83 81 80 82 83 81 84 87 88 89 90 91 88 85 85 80 74 72 74 73 69 67 65 64 61 63 64 59 57 51 52
156 159 155 154 145 143 144 143 141 140 135 124 124 123 120 123 128 126 124 124 120 118 117 106 95 89 90 94 95 97 95 97 97 96 95 97 101 102 103 104 100 94 90 86 86 86 86 87 86 83 81 82 82 84 84 82 81 82 83 83 86 91 93 93 93 92 91 90 87 84 79 74 72 71 70 67 65 65 59 60 64 56 45 40 45
152 158 156 155 148 145 147 149 150 146 141 133 131 130 125 124 126 126 127 125 122 122 120 109 98 91 91 91 95 100 101 100 98 99 100 100 101 102 103 103 102 96 93 89 88 88 88 89 87 85 83 83 82 84 85 83 82 81 83 84 86 92 94 92 92 91 92 92 84 79 79 75 72 70 71 69 65 63 58 56 55 50 39 35 45
152 154 157 159 150 148 150 155 155 150 150 143 137 136 131 126 125 125 127 125 123 124 121 116 106 98 91 86 97 106 104 103 103 104 104 102 102 103 103 102 102 97 93 88 88 89 90 90 88 88 87 85 83 84 85 84 83 82 81 83 90 95 94 91 90 89 93 90 78 72 70 70 71 71 72 71 67 58 54 51 46 49 43 38 46
153 153 159 160 154 151 150 159 155 147 151 150 147 144 138 130 127 121 119 120 123 125 122 120 111 102 96 94 108 112 107 108 108 104 102 100 98 99 102 102 102 97 93 90 91 93 92 92 90 90 90 87 84 85 85 85 84 83 82 83 92 96 93 92 90 88 90 81 70 68 64 65 68 69 70 71 71 62 54 46 38 43 42 43 50
154 154 158 161 159 156 154 163 159 148 149 153 154 152 149 138 130 122 121 123 122 121 119 117 112 107 100 99 110 117 116 115 112 108 107 104 100 102 105 102 102 98 93 92 93 95 93 91 92 91 91 87 86 85 85 86 85 83 83 83 85 91 95 93 92 89 80 66 59 62 59 62 67 69 70 68 69 67 57 46 41 43 43 48 54
155 155 158 164 163 161 161 166 161 154 152 154 158 157 159 149 140 140 141 140 134 125 123 128 124 119 106 102 110 119 123 118 114 112 108 105 105 105 105 102 101 99 96 96 95 96 94 93 93 93 92 90 89 88 86 86 84 82 81 81 79 83 89 90 92 86 73 62 56 57 56 60 66 71 74 70 65 60 53 47 44 44 48 54 58
158 159 162 165 165 167 167 168 158 155 154 153 163 165 165 156 148 150 157 156 150 137 136 141 139 130 113 114 122 125 128 121 116 113 106 104 107 106 107 107 105 101 99 99 97 97 96 95 96 96 95 95 94 90 88 86 83 79 77 78 76 77 75 80 91 81 68 61 57 54 54 59 65 71 75 69 58 53 56 51 41 42 51 59 63
162 161 166 165 171 176 171 168 158 157 160 153 162 167 165 160 151 151 155 149 147 143 143 144 146 144 130 135 142 138 137 125 116 115 114 114 112 112 111 109 107 104 104 102 100 99 98 98 97 97 97 99 97 92 90 87 82 76 73 73 71 72 69 72 82 71 63 62 59 54 53 58 62 68 74 63 51 54 62 58 45 46 55 64 69
165 165 169 168 176 179 173 169 163 163 164 154 157 161 162 162 155 153 154 146 145 147 144 141 145 151 150 158 159 151 143 129 120 116 117 120 118 116 114 111 109 109 108 105 103 102 101 100 98 97 97 100 96 92 91 87 83 75 70 68 63 61 58 65 69 62 65 66 62 56 51 58 61 63 69 59 50 53 57 59 53 55 66 71 74
168 172 171 171 182 182 176 171 170 167 164 161 161 164 164 159 154 153 153 149 152 152 145 141 147 155 161 169 167 154 141 135 127 114 116 121 122 120 117 114 112 111 110 108 107 105 103 102 99 98 97 100 98 94 92 86 81 73 67 63 58 49 44 57 62 56 67 70 70 60 46 52 63 64 66 61 54 54 57 64 64 66 75 78 78
172 177 175 172 187 186 179 175 172 172 166 165 164 167 163 157 155 155 155 156 157 154 149 146 151 158 156 157 156 149 143 145 135 120 123 125 125 121 117 116 118 116 116 114 111 109 106 104 101 99 100 102 99 93 88 81 77 68 66 60 50 40 35 50 58 50 66 78 70 54 43 49 66 66 64 68 64 61 64 72 79 78 80 81 78
175 182 177 172 190 189 182 178 176 180 170 165 164 161 157 159 160 158 160 161 159 154 155 155 159 158 148 144 146 149 150 151 143 135 134 130 125 120 121 124 126 120 119 120 116 115 110 108 105 101 102 102 96 88 83 76 72 67 64 56 44 32 29 44 54 49 62 84 73 50 45 50 67 67 63 72 71 67 72 78 83 83 84 83 76
179 184 179 174 190 192 187 182 181 185 174 170 168 162 155 161 165 162 166 165 164 163 166 169 170 161 152 160 153 151 155 154 150 145 138 133 128 125 131 136 136 127 121 124 122 119 114 111 108 104 100 97 94 85 79 72 68 65 62 50 38 27 30 41 44 49 62 78 87 55 46 60 74 68 60 74 74 67 71 80 85 85 84 79 72
186 185 181 180 188 194 193 189 188 187 183 183 174 174 169 168 171 169 172 173 176 178 177 176 174 166 158 174 172 158 156 155 154 150 145 141 138 134 139 143 145 138 126 126 128 122 114 112 109 105 100 96 97 85 77 72 66 64 59 48 35 25 36 46 38 49 60 67 75 56 52 79 83 67 58 78 77 67 72 84 88 87 80 73 69
191 187 185 185 187 194 197 195 195 193 195 195 184 186 181 176 176 174 181 185 188 187 181 174 172 176 168 175 180 173 163 162 160 156 155 154 151 141 143 144 143 143 131 127 131 123 114 115 112 107 104 102 98 86 77 71 65 64 58 45 35 26 41 52 43 53 62 66 69 60 60 78 77 64 70 85 79 70 77 87 90 86 76 71 72
193 193 191 191 190 194 197 198 200 201 205 207 199 195 191 186 181 179 188 193 197 193 181 174 172 180 178 176 182 183 177 173 171 167 169 168 163 152 145 145 143 143 136 131 131 124 119 122 123 120 114 109 99 88 78 71 67 63 56 43 37 33 44 53 49 60 66 69 69 62 70 79 72 59 86 91 82 74 80 88 87 78 70 69 73
197 198 198 197 197 199 198 199 202 205 209 212 209 206 206 196 189 187 194 201 205 197 184 181 179 183 186 184 185 186 185 185 187 185 183 176 168 165 156 153 153 150 145 144 141 135 134 134 130 129 123 114 103 93 85 76 68 57 50 42 38 36 45 51 49 61 68 69 67 59 78 85 76 67 87 87 83 84 91 92 87 73 60 65 75
200 201 204 204 205 206 203 203 202 203 205 207 205 209 216 202 194 195 202 207 209 202 191 190 190 191 196 196 194 192 190 191 195 194 190 185 177 173 174 171 167 163 155 152 152 150 148 142 137 135 132 127 114 105 96 80 66 51 45 39 35 38 43 46 45 57 69 70 60 62 90 89 78 74 85 85 87 97 101 96 88 76 65 73 84
204 202 207 210 211 211 209 207 204 204 204 205 202 206 218 207 198 201 207 211 211 208 203 199 199 202 206 207 207 207 207 204 202 201 196 192 189 184 187 189 184 172 160 157 160 159 155 150 145 142 138 135 128 120 107 84 64 50 42 31 33 41 42 42 41 48 67 73 55 68 96 91 87 86 85 87 88 99 100 95 88 79 76 86 93
209 207 209 211 213 214 212 211 210 208 206 208 207 205 216 210 202 205 210 213 215 215 215 209 207 212 216 217 218 216 217 218 215 210 205 202 206 204 201 203 205 187 173 168 167 165 164 161 156 153 146 133 125 124 120 93 65 52 44 32 37 42 37 39 44 41 52 66 57 76 92 80 83 86 78 87 91 99 98 93 88 86 90 96 97
213 210 210 211 212 214 214 213 213 212 210 212 212 210 214 209 204 207 211 217 219 220 221 216 214 218 219 221 224 221 215 217 220 216 212 212 217 218 217 219 217 202 190 180 173 174 173 169 166 161 151 127 113 119 123 95 61 53 52 42 42 41 31 38 48 40 38 55 62 85 95 78 77 86 80 95 102 106 102 95 89 96 102 102 98
217 214 213 212 212 214 215 214 213 211 212 215 218 217 214 209 206 206 211 219 222 222 221 219 220 222 220 223 226 227 223 219 223 222 220 221 223 225 229 230 224 208 199 190 184 183 179 178 178 171 161 129 115 118 118 91 55 46 48 43 40 37 32 38 46 41 33 48 85 101 103 92 88 99 107 108 107 106 105 99 96 103 107 105 102
220 220 217 215 214 215 215 215 215 212 213 215 218 219 216 213 210 208 210 218 223 221 220 221 223 225 227 229 232 233 231 228 230 229 229 227 226 228 232 235 229 213 203 196 192 192 189 190 192 185 176 141 127 118 105 71 39 31 37 37 33 35 34 34 36 43 32 33 97 118 107 107 104 114 123 114 114 111 105 102 105 112 110 106 104
223 223 222 220 218 217 216 216 214 212 214 215 216 217 216 215 214 214 213 216 222 220 220 224 227 229 231 234 238 240 235 233 232 231 229 228 228 229 234 235 229 218 206 200 198 200 200 201 202 197 190 173 157 129 96 29 17 17 20 18 23 31 30 29 33 46 38 28 84 134 122 121 121 119 118 116 124 118 108 113 115 115 112 107 105
225 225 225 225 223 221 219 218 215 213 214 214 216 217 217 218 217 217 216 219 224 222 223 227 230 231 234 237 244 245 239 234 232 230 229 230 231 232 236 236 230 220 208 204 203 204 207 209 207 203 200 197 200 218 241 318 335 337 339 334 359 22 25 29 38 44 40 29 41 150 147 141 136 130 129 139 144 135 121 123 122 117 115 113 109
225 227 228 228 227 225 222 222 219 216 215 214 215 218 220 221 221 221 219 222 225 223 225 227 231 234 236 240 245 245 239 236 231 230 233 233 233 235 239 238 229 219 210 207 207 208 211 214 213 211 210 210 217 232 252 287 306 319 325 315 305 348 21 27 37 37 37 31 23 155 173 170 158 148 145 156 154 146 136 130 128 122 119 117 113
224 227 228 229 230 228 225 224 223 220 218 217 217 220 223 224 226 226 222 223 224 223 226 226 230 236 237 239 242 239 233 234 232 231 234 234 236 238 240 238 229 219 213 210 210 211 214 218 218 215 215 217 224 237 262 283 302 312 320 323 302 292 342 18 27 26 26 27 18 30 184 179 173 166 153 157 161 152 147 140 135 132 127 123 121
223 224 224 226 228 227 225 225 226 225 222 220 221 223 225 226 228 228 225 223 224 225 226 227 230 234 236 240 241 235 230 238 240 237 237 237 237 239 238 235 228 220 215 212 212 214 216 219 217 215 216 220 229 244 262 274 295 300 294 299 297 278 253 351 3 4 7 8 12 9 186 180 178 178 164 161 168 160 153 148 142 144 141 135 132
220 221 221 223 224 223 224 224 226 227 224 223 225 226 226 227 228 229 228 225 227 228 227 229 232 232 234 242 243 237 237 244 249 248 245 243 240 238 236 232 228 222 216 215 215 215 217 219 217 218 221 224 234 247 259 267 283 294 291 279 264 256 232 238 334 324 336 335 359 7 190 187 185 184 176 169 173 171 167 166 158 156 155 147 143
214 216 218 218 219 220 222 221 224 227 224 225 228 228 228 228 229 230 231 229 229 229 229 232 235 236 233 240 244 241 242 245 250 253 250 246 242 239 236 232 230 225 218 217 218 219 220 222 222 223 222 226 237 245 255 265 279 291 297 285 258 245 232 231 276 275 302 308 302 356 243 196 194 188 185 181 180 180 183 187 174 164 164 159 155
214 217 215 213 216 218 221 220 221 226 225 225 228 230 229 230 232 232 234 234 233 232 233 236 239 242 239 239 245 243 244 246 247 250 248 244 241 238 237 234 231 226 221 220 221 223 225 228 231 230 229 229 236 247 254 259 271 281 290 285 255 234 228 241 261 245 257 292 264 328 344 210 205 198 195 191 187 187 190 191 182 177 176 172 169
220 223 218 214 215 215 219 220 219 223 225 224 226 229 229 230 232 233 236 237 238 238 237 238 241 245 244 244 246 243 244 247 246 247 244 241 240 238 236 234 231 227 224 223 225 228 229 234 237 237 237 234 236 246 252 253 258 269 275 268 251 232 221 230 262 251 253 277 254 260 327 242 213 208 207 201 196 198 197 192 187 182 174 170 176
225 225 224 222 221 217 216 217 217 220 224 224 224 227 228 229 232 233 236 238 239 241 240 239 241 245 246 246 246 242 241 243 243 245 244 241 240 239 237 233 231 228 227 228 230 233 234 237 240 239 238 235 236 241 246 249 252 259 264 256 249 238 226 221 251 256 256 264 255 248 280 276 224 217 216 211 207 207 201 194 190 185 177 171 177
227 228 232 231 227 223 219 217 217 218 221 224 223 226 228 227 231 233 234 237 239 241 241 240 240 243 245 246 246 244 240 238 239 242 243 241 238 238 238 235 232 229 230 232 232 235 238 238 237 236 235 234 233 237 240 244 251 256 255 252 248 240 227 222 242 259 259 262 255 242 258 266 242 221 215 212 208 206 203 198 197 197 200 194 186
231 231 234 234 229 226 226 224 220 218 219 223 223 225 228 227 230 233 234 236 238 239 240 240 240 241 244 246 246 245 242 239 237 236 237 236 234 236 238 237 234 231 231 234 234 237 240 240 237 236 236 236 233 234 238 242 250 255 254 252 248 243 236 227 236 254 256 262 255 241 251 261 256 234 213 208 204 203 205 206 207 212 220 215 199
238 236 233 234 232 228 228 228 224 220 218 221 224 224 225 227 229 233 235 236 237 238 238 239 240 241 243 246 246 245 244 241 235 232 233 233 232 235 237 236 234 234 235 237 238 238 240 240 239 239 238 239 239 236 236 241 248 252 254 251 246 248 242 230 233 242 245 253 253 243 243 248 254 251 221 213 212 210 211 215 219 226 234 233 215
243 242 236 235 235 231 230 231 228 222 219 219 222 224 225 226 228 230 234 236 237 238 239 239 239 240 243 245 245 244 245 243 236 231 233 233 233 234 235 235 234 236 237 238 240 240 240 240 239 240 239 237 239 239 238 240 245 249 253 250 247 248 241 233 235 236 237 243 245 242 240 241 243 244 234 227 224 221 221 223 228 234 240 243 234
243 245 240 236 234 231 232 233 230 223 218 219 221 223 225 226 227 227 230 233 234 236 238 238 238 240 241 242 241 240 241 242 236 230 233 234 234 235 234 235 237 237 237 237 238 238 239 240 240 240 241 239 238 237 239 240 244 248 252 250 245 244 241 241 240 236 241 246 246 243 239 240 240 235 236 238 232 229 229 229 232 237 242 245 245
243 244 242 236 230 230 230 232 233 224 214 215 218 219 221 224 225 224 225 228 231 233 236 237 237 238 239 238 237 235 235 237 234 231 233 234 233 234 233 234 236 235 234 233 234 235 236 239 239 237 238 241 241 238 237 238 244 249 252 250 248 246 243 241 238 236 241 247 248 246 239 237 239 236 235 236 237 237 235 234 236 239 243 246 247
243 242 238 236 235 232 227 230 233 224 212 211 213 213 215 218 220 221 222 223 226 229 233 236 236 237 237 236 235 234 232 232 233 230 231 235 233 232 236 235 232 231 232 232 233 234 233 233 236 237 235 236 238 238 235 234 241 247 249 249 249 247 245 242 238 236 238 241 243 242 238 237 238 239 238 237 241 246 242 240 240 241 243 246 246
241 241 238 237 238 233 226 229 230 223 217 213 209 211 213 214 217 221 222 222 224 226 231 235 237 239 238 235 234 235 233 232 233 231 232 233 229 232 239 238 232 229 230 232 233 233 233 233 233 235 233 230 233 234 227 224 230 240 248 255 249 237 239 244 243 243 243 242 242 239 236 236 236 240 244 243 244 247 246 244 244 244 244 245 243
242 242 241 240 237 232 227 226 224 223 223 219 214 214 215 215 215 219 223 225 228 229 232 235 237 240 240 238 236 235 234 232 232 235 239 237 234 239 241 238 235 228 226 230 230 229 231 232 230 228 227 227 231 229 221 219 224 233 244 254 257 246 238 234 235 241 243 243 243 239 236 234 233 239 243 243 243 245 246 246 247 248 246 244 241
242 239 238 238 234 232 230 228 225 225 226 225 223 220 219 219 216 218 224 229 233 234 234 235 235 237 238 237 235 233 232 232 231 237 243 242 240 242 240 238 237 231 224 226 227 228 227 225 224 223 222 222 226 225 221 221 222 223 229 233 246 263 251 227 228 230 227 235 240 236 236 234 232 236 238 239 242 244 245 246 248 249 247 244 241
240 240 238 238 235 233 234 233 230 227 226 228 228 223 219 217 215 219 226 229 233 232 230 230 228 229 231 230 230 230 230 233 235 237 242 242 241 241 240 238 239 236 230 226 228 229 227 224 224 222 220 221 225 223 219 223 222 219 224 230 221 244 248 226 240 226 209 222 234 232 234 235 234 236 238 239 241 243 244 246 247 248 247 245 242
241 243 242 241 239 237 237 235 231 228 228 230 228 224 218 212 210 210 215 219 221 222 221 221 219 220 225 225 224 226 227 232 234 233 237 240 241 241 241 240 239 239 236 231 228 228 229 232 231 226 223 224 226 227 223 225 226 222 225 235 238 254 272 206 199 246 209 209 224 229 231 233 233 236 238 240 241 242 243 245 247 247 247 246 243
243 245 244 243 242 240 238 236 233 231 230 229 227 223 217 212 210 209 211 211 213 219 220 220 221 222 225 224 223 224 225 228 227 225 229 237 240 240 241 241 239 240 239 234 228 225 231 237 235 232 231 226 223 229 231 223 220 223 226 233 239 245 254 245 240 269 250 217 221 225 229 230 231 234 238 239 240 241 242 245 246 246 246 246 244
247 246 244 244 243 242 239 237 235 234 231 229 226 224 219 215 214 214 214 214 218 223 223 223 224 222 223 226 227 227 229 230 224 223 228 232 239 240 240 241 240 238 239 238 234 230 233 238 238 238 236 228 222 226 231 223 216 223 225 230 236 239 242 243 244 255 266 260 234 223 227 231 231 233 237 238 239 241 243 245 246 246 247 246 244
251 250 249 248 245 242 240 237 236 235 232 229 227 225 223 220 217 217 218 220 224 226 222 224 225 221 222 227 230 230 232 233 229 231 233 232 240 242 239 240 240 237 237 237 236 235 237 238 239 241 238 231 226 225 229 227 222 223 223 226 231 235 238 239 238 242 247 252 249 226 216 224 234 237 237 238 240 242 243 244 247 247 247 247 245
257 256 254 250 245 242 239 237 236 234 232 231 229 227 226 223 220 219 221 223 224 224 219 221 222 219 222 226 228 230 232 234 235 238 238 236 241 242 239 239 238 236 234 232 231 234 236 235 235 240 239 235 228 223 227 229 227 224 223 226 227 226 228 228 226 231 237 238 244 250 218 206 230 241 240 241 243 244 244 244 246 247 246 246 246
262 259 254 249 245 241 237 236 237 234 230 230 229 228 227 224 223 222 222 224 223 222 221 220 218 218 223 225 225 228 231 234 236 238 239 238 238 237 238 238 234 232 232 230 230 231 232 231 230 235 236 234 228 224 227 229 229 228 224 226 230 226 222 217 213 218 224 230 235 248 234 223 231 242 246 247 246 246 245 244 244 245 245 245 245